Showing default

ICEYE-X47, 62389

Orbit data source: Space-Track

ICEYE-X47, 62389 is a payload satellite owned by ICEYE (FI) in LEO that was launched on Sat, 21 Dec 2024 UTC via an FALCON 9 launch vehicle from the Air Force Western Test Range (AFWTR). Payload-class satellites include a variety of spacecraft equipped with specific instruments for various scientific and technological missions. These include communications satellites like Starlink; space stations such as the ISS; scientific satellites like the Hubble; Earth observation satellites from companies like Planet Labs, Umbra, and HawkEye 360; GPS; miniature CubeSats for education and research; and military/defense satellites.

Loading next visibility...
Identifier
62389, 2024-247N
Orbit
LEO
Country
Flag of FIFI / FIN
Related business
Manufacturer
ICEYE
Mission
Operational Commercial Radar Imaging
Bus & Motor
ICEYE, Unknown motor
Mass
80 kg wet, 80 kg dry
Launch date (UTC)
2024-12-21 (1 year ago)
Launch vehicle
FALCON 9
Launch site
Air Force Western Test Range (AFWTR)
Object type
Payload
Rocket body
Debris
Shape & HBR
Box + 1 Pan, 2.4 m
Radar Cross Section
0.776 m², Medium (>0.1 m² and < 1m²)

Expand to show TLE details & history
Last TLE update: 1 day ago

TLE from 1 day ago
0 ICEYE-X47
1 62389U 24247N   26170.91754477  .00003810  00000-0  22458-3 0  9993
2 62389  44.9969 342.4147 0002439 259.0612 100.9991 15.13293679 82598
Epoch: 2026-06-19T22:01Z
TLE epoch observation values (Epoch: 2026-06-19T22:01:15.868Z)
Latitude
-0.00001°
Longitude
103.95893°
Altitude
526.484 km
Speed
7.601 km/s
True Right ascension
22h 49m 39s
True Declination
0° 00' 00"
Sunlit
Object was in daylight at epoch
Visualization orbit readout
Latitude
Unknown
Longitude
Unknown
Altitude
Unknown
Speed
Unknown
Apparent Right ascension
Unknown
Apparent Declination
Unknown
Sunlit
N/A
Visualization observer readout
Local Sidereal Time
10:18:00
Azimuth
Unknown
Elevation
Unknown
Doppler factor
Unknown
Orbital elements
Apogee altitude
529.448 km
Perigee altitude
526.079 km
Semi-major axis
6,905.9 km
Eccentricity
0.00024
Inclination
44.9969°
RAAN
342.4147°
Arg. of periapsis
259.0612°
True anomaly
101.02653°
Mean anomaly
100.9991°
Eccentric anomaly
101.01282°
Mean motion
3.78192 °/min
Orbital period
95.19 mins
BSTAR
0.00022458
Loading maneuver chart data...
Computing Atmospheric mass density...
Loading historical data...
Loading historical data...
Loading historical data...
Loading historical data...
Loading historical data...
Loading historical data...
Loading historical data...

Documentation

Showing up to 5 results
|